Regional Weather Roundup
Issued by NWS

Home | Current Version | Previous Version | Text Only | Print | Product List | Glossary On
Versions: 1 2 3 4 5 6 7 8 9 10 11 12 13 14 15 16 17 18 19 20 21 22 23 24 25 26 27 28
000
ASUS42 KKEY 301810
RWRKEY

FLORIDA REGIONAL WEATHER ROUNDUP FOR THE FLORIDA KEYS
NATIONAL WEATHER SERVICE KEY WEST FLORIDA
200 PM EDT THU OCT 30 2014

...SOUTH FLORIDA AND THE KEYS...

CITY           SKY/WX    TMP DP  RH WIND       PRES   REMARKS
FORT MYERS     PTSUNNY   83  64  52 W7        29.90F
SW REGIONAL AP MOSUNNY   84  62  47 NW5       29.91F
NAPLES         MOSUNNY   82  68  62 SW10      29.91F
MIAMI          PTSUNNY   82  64  54 SE7       29.91F
WEST KENDALL   MOSUNNY   89  63  41 N6        29.91F HX  90
HOMESTEAD      SUNNY     82  65  55 E7        29.91F
MARATHON       SUNNY     82  70  66 N7        29.93F
BOCA CHICA NAS MOSUNNY   83  65  54 SE6       29.93F
KEY WEST INTL  MOSUNNY   82  68  62 E6        29.93F

...INTERNATIONAL WEATHER...

CITY           SKY/WX    TMP DP  RH WIND       PRES   REMARKS
NASSAU BAHAMAS MOSUNNY   84  73  70 N5        29.90F HX  91
CANCUN MEXICO  PTSUNNY   86  72  62 NE6       29.94F HX  92
COZUMEL MEXICO MOSUNNY   81  73  78 NE8       29.94F

ADJACENT COASTAL WATERS...

STATION/POSITION TIME  SKY/WX   TEMP    WIND        PRES    WAVE
                                AIR SEA DIR/SP/G            HT/PER
                 (UTC)          (F)     (DEG/KT/KT) (MB)    (FT/S)
PULASKI SHOAL LI 1700            79      70/  2/  2 1014.3F
SAND KEY         1800            78     100/  4/  5 1013.6F
SOMBRERO KEY     1800            80      50/  1/  2 1014.1F
LONG KEY         1656            78 80   10/  3/  4 1015.0F
MOLASSES REEF    1800            80 82   CALM  /  4 1013.1F
FOWEY ROCKS      1800            79 80   20/  2/  3 1013.1F
Buoy 42080       NOT AVBL

$$



USA.gov is the U.S. government's official web portal to all federal, state and local government web resources and services.